Japanese version Home page |
Updated on May 13, 2024 |
|
Orbital ElementsEpoch 2024 Mar. 31.0 TT = JDT 2460400.5 T 2024 May 1.96389 TT Rudenko q 2.3936079 (2000.0) P Q n 0.14158883 Peri. 13.17777 -0.76674457 -0.61831968 a 3.6457206 Node 127.27160 +0.56756412 -0.77855457 e 0.3434473 Incl. 12.52523 +0.29995622 -0.10739440 P 6.96 >From 501 observations 2015 Sept. 18-2024 Mar. 6, mean residual 0".5.
|
Magnitudes Graphm1 = 6.5 + 5 log d + 25.0 log r
|
The orbital elements are published on M.P.E.C. 2024-F34.
|